This demonstration page uses our WeatherBlox Daily Observations layout. Learn more.

38.88101, -77.10428

Hourly Observations for September 13, 2018

Temp ( °F °C ) Dew Point ( °F °C ) Humidity (%) Winds ( mph kmh ) Pressure ( in mb ) Visibility ( mi km ) Precip ( " mm )
12:24 am 00:24 Partly Cloudy 75 23.9 73 22.8 94 94 NE 6 9 30.18 1022 10 16.0934 0 0
12:52 am 00:52 Mostly Clear 75 23.9 72 22.2 90 90 NE 6 9 30.19 1022 9 14.48406 0 0
1:52 am 01:52 Mostly Cloudy 75 23.9 72 22.2 90 90 NE 5 7 30.19 1022 10 16.0934 0 0
2:39 am 02:39 Cloudy 74 23.3 71 21.7 91 91 NE 7 11 30.18 1022 10 16.0934 0 0
2:52 am 02:52 Cloudy 74 23.3 70 21.1 88 88 E 7 11 30.18 1022 10 16.0934 0 0
3:52 am 03:52 Cloudy 75 23.9 70 21.1 84 84 NNE 9 15 30.18 1022 10 16.0934 0 0
4:52 am 04:52 Cloudy 74 23.3 70 21.1 88 88 NNE 7 11 30.18 1022 10 16.0934 0 0
5:19 am 05:19 Cloudy 74 23.3 70 21.1 88 88 ENE 8 13 30.18 1022 10 16.0934 0 0
5:52 am 05:52 Cloudy 74 23.3 70 21.1 88 88 NNE 6 9 30.19 1022 10 16.0934 0 0
6:02 am 06:02 Cloudy 74 23.3 70 21.1 88 88 NE 6 9 30.18 1022 10 16.0934 0 0
6:52 am 06:52 Mostly Cloudy 74 23.3 70 21.1 88 88 NNE 9 15 30.19 1022 10 16.0934 0 0
7:25 am 07:25 Cloudy 75 23.9 70 21.1 84 84 NNE 10 17 30.18 1022 10 16.0934 0 0
7:45 am 07:45 Cloudy 75 23.9 70 21.1 84 84 NNE 10 17 30.18 1022 10 16.0934 0 0
7:52 am 07:52 Cloudy 75 23.9 70 21.1 84 84 NE 12 19 30.19 1022 10 16.0934 0 0
8:11 am 08:11 Cloudy 75 23.9 70 21.1 84 84 NE 10 17 30.21 1023 10 16.0934 0 0
8:48 am 08:48 Cloudy 75 24 70 21 83 83 NE 12 19 30.21 1023 10 16.0934 0 0
8:52 am 08:52 Cloudy 75 23.9 71 21.7 88 88 NE 13 20 30.19 1023 10 16.0934 0 0
9:35 am 09:35 Cloudy 75 23.9 70 21.1 84 84 ENE 12 19 30.21 1023 10 16.0934 0 0
9:52 am 09:52 Cloudy 76 24.4 71 21.7 85 85 NE 13 20 30.22 1023 10 16.0934 0 0
10:52 am 10:52 Cloudy with Light Rain 75 23.9 72 22.2 90 90 NE 13 20 30.22 1023 8 12.87472 0 0.0254
11:20 am 11:20 Cloudy 76 24.4 72 22.2 88 88 NE 8 13 30.21 1023 10 16.0934 0 0.0254
11:52 am 11:52 Cloudy 77 25 72 22.2 85 85 NE 9 15 30.21 1023 10 16.0934 0 0.0254
12:06 pm 12:06 Cloudy 77 25 72 22.2 85 85 NE 8 13 30.21 1023 10 16.0934 0 0
12:52 pm 12:52 Cloudy 77 25 72 22.2 85 85 NE 12 19 30.2 1023 10 16.0934 0 0
1:52 pm 13:52 Cloudy 79 26.1 73 22.8 82 82 NNE 8 13 30.18 1022 10 16.0934 0 0
2:08 pm 14:08 Cloudy with Light Rain 78 25.6 73 22.8 85 85 NE 12 19 30.18 1022 9 14.48406 0 0.0254
2:48 pm 14:48 Cloudy 79 26 73 23 84 84 NE 10 17 30.18 1022 10 16.0934 0 0.0254
2:52 pm 14:52 Cloudy 79 26.1 73 22.8 82 82 NE 10 17 30.17 1022 10 16.0934 0 0.0254
3:52 pm 15:52 Mostly Cloudy 81 27.2 73 22.8 77 77 NE 10 17 30.16 1022 10 16.0934 0 0
4:52 pm 16:52 Cloudy 80 26.7 72 22.2 76 76 NE 13 20 30.16 1021 10 16.0934 0 0
5:43 pm 17:43 Cloudy 79 26.1 71 21.7 77 77 NE 9 15 30.15 1021 10 16.0934 0 0
5:52 pm 17:52 Cloudy 80 26.7 71 21.7 74 74 NE 15 24 30.15 1021 10 16.0934 0 0
6:52 pm 18:52 Cloudy 78 25.6 71 21.7 79 79 NE 10 17 30.15 1021 10 16.0934 0 0
7:52 pm 19:52 Cloudy 77 25 71 21.7 82 82 NE 10 17 30.14 1021 10 16.0934 0 0
8:10 pm 20:10 Mostly Cloudy 77 25 71 21.7 82 82 NE 13 20 30.15 1021 10 16.0934 0 0
8:52 pm 20:52 Cloudy 76 24.4 71 21.7 85 85 ENE 10 17 30.16 1021 10 16.0934 0 0
9:52 pm 21:52 Mostly Cloudy 76 24.4 71 21.7 85 85 NE 12 19 30.15 1021 10 16.0934 0 0
10:17 pm 22:17 Mostly Cloudy 76 24.4 71 21.7 85 85 NE 13 20 30.15 1021 10 16.0934 0 0
10:36 pm 22:36 Cloudy 75 23.9 70 21.1 84 84 NE 15 24 30.15 1021 10 16.0934 0 0
10:52 pm 22:52 Cloudy 76 24.4 70 21.1 82 82 NE 12 19 30.15 1021 10 16.0934 0 0
11:02 pm 23:02 Cloudy 76 24.4 70 21.1 82 82 NE 13 20 30.15 1021 10 16.0934 0 0
11:52 pm 23:52 Cloudy 75 23.9 69 20.6 82 82 NE 14 22 30.16 1021 10 16.0934 0 0

Powered by AerisWeather